Find Starlink 32040

NORAD ID: 60109 Int'l Des: 2024-117 Owner: SPXS Country: US Constellation: starlink operational
LEOCIRCULAR

現在のビュー

3D地球を読み込み中...

About Starlink 32040

Starlink 32040 (NORAD 60109) is a starlink constellation satellite (v2 mini) launched Jun 23, 2024 by SPXS of US. It operates in LEO, CIRCULAR orbit with a mass of 730.00 kg.

Starlink 32040について

説明を読み込み中...

次回通過

Passes for default location (London). Set your location on the main map for personalized predictions.

高度履歴

Loading altitude history...

軌道要素

1 60109U 24117U 26171.44387132 -.00001966 00000-0 -54265-4 0 9990
2 60109 53.1602 279.4860 0001178 80.1467 279.9667 15.30194195112620
Epoch: Jun 20, 2026 • Age: 22 hours

現在のステータス

高度 479.4 km
速度 7.63 km/s
衛星直下点 45.88°N, 77.3°W
打ち上げ日 Jun 23, 2024
運用期間 1.9 years
タイプ internet

技術仕様

分類 Payload
質量 730.00 kg
乾燥質量 700.00 kg
総質量 730.00 kg
長さ 0.30 m
直径 4.10 m
スパン 29.00 m
形状 Box + pan
製造者 SPXS
バスタイプ Starlink V2M
フェーズステータス In Orbit
所有者/国 SPXS/US

Most Searched